Weather History for KANJ - June, 2013

Change the Weather History Date:

Saturday, June 15, 2013

  Actual Average Record
Temperature  
Mean Temperature 57 °F 60 °F  
Max Temperature 71 °F 71 °F 90 °F (1894)
Min Temperature 43 °F 49 °F 35 °F (1984)
Degree Days  
Heating Degree Days 8 6  
Month to date heating degree days 109 112  
Since 1 June heating degree days 109 112  
Since 1 July heating degree days 8325 8595  
Cooling Degree Days 0 1  
Month to date cooling degree days 1 8  
Year to date cooling degree days 10 13  
Since 1 June cooling degree days 1 8  
Growing Degree Days 8 (Base 50)    
Moisture  
Dew Point 47 °F    
Average Humidity 68    
Maximum Humidity 93    
Minimum Humidity 42    
Precipitation  
Precipitation 0.19 in 0.09 in 1.51 in (1939)
Month to date precipitation 0.66 1.36  
Year to date precipitation 14.92 11.80  
Sea Level Pressure  
Sea Level Pressure 29.94 in    
Wind  
Wind Speed 3 mph (SSE)    
Max Wind Speed 13 mph    
Max Gust Speed 18 mph    
Visibility 8 miles    
Events Rain    
T = Trace of Precipitation, MM = Missing Value Source: NWS Daily Summary

Daily Weather History Graph

Daily Weather History Graph

Search for Another Location

Airport or City:

Trip Planner

Search our weather history database for the weather conditions in past years. The results will help you decide how hot, cold, wet, or windy it might be!

Date:

Astronomy

Jun. 15, 2013 Rise Set
Actual Time 5:43 AM EDT 9:32 PM EDT
Civil Twilight 5:04 AM EDT 10:11 PM EDT
Nautical Twilight 4:11 AM EDT 11:04 PM EDT
Astronomical Twilight 2:56 AM EDT 12:20 AM EDT
Moon 12:39 PM EDT (6/15) 12:47 AM EDT (6/15)
Length of Visible Light 17h 06m
Length of Day
15h 48m
Waxing Crescent, 39% of the Moon is Illuminated
Jun 15
Waxing Crescent
Jun 16
First Quarter
Jun 23
Full
Jun 30
Last Quarter
Jul 8
New

Hourly Weather History & Observations

Time (EDT) Temp. Dew Point Humidity Pressure Visibility Wind Dir Wind Speed Gust Speed Precip Events Conditions
12:55 AM 46.9 °F 39.9 °F 77% 30.03 in 10.0 mi WSW 3.5 mph - N/A   Clear
1:55 AM 46.9 °F 41.0 °F 80% 30.01 in 10.0 mi Calm Calm - N/A   Clear
2:55 AM 46.0 °F 42.1 °F 86% 30.01 in 10.0 mi Calm Calm - N/A   Clear
3:55 AM 46.9 °F 42.1 °F 83% 30.02 in 10.0 mi Calm Calm - N/A   Clear
4:55 AM 48.0 °F 42.1 °F 80% 30.01 in 10.0 mi Calm Calm - N/A   Clear
5:55 AM 48.0 °F 42.1 °F 80% 30.01 in 10.0 mi Calm Calm - N/A   Clear
6:55 AM 48.9 °F 43.0 °F 80% 30.03 in 10.0 mi South 3.5 mph - N/A   Clear
7:55 AM 53.1 °F 43.0 °F 69% 30.03 in 10.0 mi Calm Calm - N/A   Clear
8:55 AM 55.0 °F 42.1 °F 62% 30.04 in 10.0 mi Calm Calm - N/A   Clear
9:55 AM 57.9 °F 44.1 °F 60% 30.02 in 10.0 mi South 3.5 mph - N/A   Partly Cloudy
10:55 AM 61.0 °F 44.1 °F 54% 29.99 in 10.0 mi Calm Calm - N/A   Partly Cloudy
11:55 AM 63.0 °F 42.1 °F 46% 29.98 in 10.0 mi ESE 4.6 mph - N/A   Mostly Cloudy
12:55 PM 62.1 °F 45.0 °F 53% 29.96 in 10.0 mi Variable 4.6 mph - N/A   Overcast
1:55 PM 66.0 °F 43.0 °F 43% 29.96 in 10.0 mi SE 4.6 mph - N/A   Mostly Cloudy
2:55 PM 68.0 °F 44.1 °F 42% 29.94 in 10.0 mi Calm Calm - N/A   Overcast
3:55 PM 69.1 °F 46.0 °F 44% 29.92 in 10.0 mi SE 5.8 mph - N/A   Overcast
4:55 PM 71.1 °F 48.9 °F 45% 29.92 in 10.0 mi SW 5.8 mph - N/A   Overcast
5:55 PM 70.0 °F 46.0 °F 42% 29.91 in 10.0 mi SW 12.7 mph 18.4 mph N/A   Overcast
6:55 PM 66.9 °F 46.0 °F 47% 29.91 in 10.0 mi South 6.9 mph - 0.00 in   Overcast
7:55 PM 66.0 °F 48.9 °F 54% 29.87 in 10.0 mi South 5.8 mph - N/A   Overcast
8:55 PM 64.9 °F 48.9 °F 56% 29.86 in 10.0 mi Calm Calm - N/A   Overcast
9:55 PM 62.1 °F 53.1 °F 72% 29.86 in 10.0 mi Calm Calm - 0.01 in Rain Light Rain
10:23 PM 60.1 °F 55.0 °F 83% 29.86 in 5.0 mi Calm Calm - 0.03 in Rain Light Rain
10:48 PM 59.0 °F 55.9 °F 90% 29.86 in 3.0 mi Calm Calm - 0.05 in Rain Light Rain
10:55 PM 57.9 °F 55.9 °F 93% 29.85 in 3.0 mi ESE 3.5 mph - 0.07 in Rain Heavy Rain
11:27 PM 57.9 °F 55.9 °F 93% 29.85 in 3.0 mi ESE 4.6 mph - 0.04 in Rain Light Rain
11:46 PM 57.0 °F 55.0 °F 93% 29.86 in 2.0 mi ESE 3.5 mph - 0.05 in Rain Light Rain
11:55 PM 55.9 °F 54.0 °F 93% 29.85 in 2.5 mi ESE 5.8 mph - 0.07 in Rain Light Rain